D1965 Weather Reports


time (UTC)temp
C
wind
direction
speed
KPH
gust
KPH
rain 1hr
cm
rain 24hr
cm
rain mn
cm
humidity
%
barometer
mb
20260503022006 9 69 0.0 4.8 0.00 0.00 0.00 93 1010.0
20260503021503 9 0 0.0 0.0 0.00 0.00 0.00 93 1009.9
20260503021004 9 0 0.0 0.0 0.00 0.00 0.00 93 1010.0
20260503020504 9 0 0.0 0.0 0.00 0.00 0.00 93 1010.0
20260503020004 9 0 0.0 0.0 0.00 0.00 0.00 93 1010.0
20260503015504 9 0 0.0 0.0 0.00 0.00 0.00 93 1010.1
20260503015004 9 0 0.0 0.0 0.00 0.00 0.00 93 1010.1
20260503014504 9 0 0.0 0.0 0.00 0.00 0.00 93 1010.2
20260503014005 9 0 0.0 0.0 0.00 0.00 0.00 93 1010.2
20260503013504 9 0 0.0 0.0 0.00 0.00 0.00 93 1010.2
20260503013004 9 0 0.0 0.0 0.00 0.00 0.00 93 1010.3
20260503012503 9 0 0.0 0.0 0.00 0.00 0.00 93 1010.3
20260503012004 9 0 0.0 0.0 0.00 0.00 0.00 93 1010.2
20260503011004 9 0 0.0 0.0 0.00 0.00 0.00 93 1010.4
20260503010504 9 0 0.0 0.0 0.00 0.00 0.00 93 1010.5
20260503010005 9 0 0.0 0.0 0.00 0.00 0.00 93 1010.4
20260503005504 9 0 0.0 0.0 0.00 0.00 0.00 93 1010.5
20260503005005 9 0 0.0 0.0 0.00 0.00 0.00 93 1010.5
20260503004504 9 0 0.0 0.0 0.00 0.00 0.00 93 1010.5
20260503004005 9 0 0.0 0.0 0.00 0.00 0.00 93 1010.6
20260503003504 8 0 0.0 0.0 0.00 0.00 0.00 93 1010.6
20260503002504 8 0 0.0 0.0 0.00 0.00 0.00 93 1010.7
20260503001503 8 0 0.0 0.0 0.00 0.00 0.00 93 1010.7
20260503001004 8 0 0.0 0.0 0.00 0.00 0.00 93 1010.7
20260503000005 8 0 0.0 0.0 0.00 0.00 0.00 92 1010.7
20260502235503 8 0 0.0 0.0 0.00 0.00 0.00 92 1010.7
20260502235004 8 0 0.0 0.0 0.00 0.00 0.00 91 1010.7
20260502234506 8 0 0.0 0.0 0.00 0.00 0.00 92 1010.7
20260502233506 8 0 0.0 0.0 0.00 0.00 0.00 91 1010.8
20260502233007 8 0 0.0 0.0 0.00 0.00 0.00 91 1010.7
20260502232505 8 0 0.0 0.0 0.00 0.00 0.00 92 1010.8
20260502232007 8 0 0.0 0.0 0.00 0.00 0.00 91 1010.7
20260502231506 8 0 0.0 0.0 0.00 0.00 0.00 91 1010.7
20260502231007 8 0 0.0 0.0 0.00 0.00 0.00 91 1010.7
20260502230506 8 0 0.0 0.0 0.00 0.00 0.00 90 1010.8
20260502230006 8 0 0.0 0.0 0.00 0.00 0.00 90 1010.7
20260502225506 8 0 0.0 0.0 0.00 0.00 0.00 90 1010.7
20260502224506 9 0 0.0 0.0 0.00 0.00 0.00 89 1010.7
20260502224007 9 0 0.0 0.0 0.00 0.00 0.00 89 1010.7
20260502223506 9 0 0.0 0.0 0.00 0.00 0.00 89 1010.7
20260502223007 9 0 0.0 0.0 0.00 0.00 0.00 89 1010.8
20260502222505 9 0 0.0 0.0 0.00 0.00 0.00 89 1010.9
20260502222007 9 0 0.0 0.0 0.00 0.00 0.00 89 1010.8
20260502221506 9 0 0.0 0.0 0.00 0.00 0.00 89 1010.8
20260502221007 9 0 0.0 0.0 0.00 0.00 0.00 89 1010.8
20260502220505 9 0 0.0 0.0 0.00 0.00 0.00 88 1010.8
20260502220006 9 0 0.0 0.0 0.00 0.00 0.00 88 1010.9
20260502215505 10 0 0.0 0.0 0.00 0.00 0.00 88 1010.8
20260502214506 10 0 0.0 0.0 0.00 0.00 0.00 88 1010.8
20260502213506 10 0 0.0 0.0 0.00 0.00 0.00 87 1010.9
20260502212506 10 0 0.0 0.0 0.00 0.00 0.00 87 1010.9
20260502212006 10 0 0.0 0.0 0.00 0.00 0.00 87 1010.9
20260502211505 10 0 0.0 0.0 0.00 0.00 0.00 87 1010.9
20260502210506 10 107 0.0 4.8 0.00 0.00 0.00 87 1011.0
20260502210006 10 105 1.6 4.8 0.00 0.00 0.00 87 1010.9
20260502205505 10 110 3.2 6.4 0.00 0.00 0.00 87 1011.0
20260502205006 10 111 1.6 6.4 0.00 0.00 0.00 87 1010.9
20260502204505 10 107 1.6 9.7 0.00 0.00 0.00 88 1010.8
20260502204006 10 110 1.6 9.7 0.00 0.00 0.00 88 1010.9
20260502203505 10 126 1.6 6.4 0.00 0.00 0.00 88 1011.0
20260502202505 10 125 1.6 8.0 0.00 0.00 0.00 88 1010.8
20260502202006 10 127 1.6 8.0 0.00 0.00 0.00 88 1011.0
20260502200506 11 130 3.2 8.0 0.00 0.00 0.00 87 1010.8
20260502200006 11 125 1.6 4.8 0.00 0.00 0.00 87 1010.8
20260502195505 11 136 0.0 3.2 0.00 0.00 0.00 87 1010.7
20260502195007 11 139 0.0 6.4 0.00 0.00 0.00 87 1010.8
20260502194506 11 139 1.6 6.4 0.00 0.00 0.00 87 1010.8
20260502194007 11 131 1.6 6.4 0.00 0.00 0.00 87 1010.8
20260502193506 11 129 3.2 8.0 0.00 0.00 0.00 86 1010.8
20260502193006 11 121 3.2 9.7 0.00 0.00 0.00 87 1010.8
20260502192505 11 113 1.6 9.7 0.00 0.00 0.00 87 1010.8
20260502192007 11 122 1.6 6.4 0.00 0.00 0.00 87 1010.8
20260502191505 11 133 1.6 6.4 0.00 0.00 0.00 87 1010.8
20260502191006 11 136 1.6 8.0 0.00 0.00 0.00 87 1010.8
20260502190006 11 144 1.6 6.4 0.00 0.00 0.00 87 1010.9
20260502185006 11 121 0.0 4.8 0.00 0.00 0.00 87 1010.9
20260502184007 11 147 1.6 4.8 0.00 0.00 0.00 87 1011.0
20260502183505 11 160 1.6 9.7 0.00 0.00 0.00 87 1010.9
20260502182505 11 160 1.6 8.0 0.00 0.00 0.00 85 1010.9
20260502182006 11 146 1.6 8.0 0.00 0.00 0.00 84 1010.9
20260502181505 11 166 1.6 6.4 0.00 0.00 0.00 84 1010.9
20260502181006 11 177 1.6 8.0 0.00 0.00 0.00 84 1010.9
20260502180505 11 166 3.2 11.3 0.00 0.00 0.00 84 1010.9
20260502170505 12 123 4.8 14.5 0.00 0.00 0.00 79 1011.1
20260502164007 13 150 4.8 12.9 0.00 0.00 0.00 78 1011.1
20260502163005 13 117 8.0 16.1 0.00 0.00 0.00 78 1011.1
20260502162005 13 124 6.4 16.1 0.00 0.00 0.00 77 1011.2
20260502161505 13 115 6.4 16.1 0.00 0.00 0.00 75 1011.1
20260502161006 14 124 6.4 17.7 0.00 0.00 0.00 75 1011.1
20260502160505 14 146 6.4 17.7 0.00 0.00 0.00 73 1011.0
20260502152006 13 119 6.4 14.5 0.00 0.00 0.00 78 1011.3
20260502151505 13 126 6.4 16.1 0.00 0.00 0.00 77 1011.3
20260502151006 13 142 6.4 16.1 0.00 0.00 0.00 78 1011.4
20260502150505 13 151 6.4 12.9 0.00 0.00 0.00 76 1011.4
20260502130505 13 124 6.4 19.3 0.00 0.00 0.00 81 1012.1
20260502123505 13 147 6.4 16.1 0.00 0.00 0.00 80 1012.3
20260502123005 13 138 6.4 19.3 0.00 0.00 0.00 81 1012.4
20260502122006 13 122 6.4 19.3 0.00 0.00 0.00 80 1012.4
20260502121505 14 143 4.8 14.5 0.00 0.00 0.00 81 1012.5
20260502121005 14 144 4.8 16.1 0.00 0.00 0.00 81 1012.5
20260502120504 14 142 6.4 16.1 0.00 0.00 0.00 83 1012.6
20260502115505 13 159 4.8 11.3 0.00 0.00 0.00 84 1012.9
20260502115007 13 158 4.8 11.3 0.00 0.00 0.00 84 1012.8
20260502114505 13 160 4.8 14.5 0.00 0.00 0.00 84 1012.9
20260502114006 13 159 6.4 14.5 0.00 0.00 0.00 84 1012.9
20260502113505 13 153 4.8 12.9 0.00 0.00 0.00 84 1012.9
20260502113006 13 147 4.8 14.5 0.00 0.00 0.00 85 1013.0
20260502112505 13 149 6.4 14.5 0.00 0.00 0.00 85 1013.0
20260502111505 13 137 4.8 14.5 0.00 0.00 0.00 86 1012.9
20260502111005 13 151 6.4 14.5 0.00 0.00 0.00 86 1012.9
20260502110505 13 149 6.4 16.1 0.00 0.00 0.00 86 1012.9
20260502110006 13 141 6.4 16.1 0.00 0.00 0.00 86 1013.0
20260502105504 12 146 4.8 16.1 0.00 0.00 0.00 87 1013.0
20260502104504 12 137 4.8 14.5 0.00 0.00 0.00 90 1013.1
20260502104006 12 131 4.8 14.5 0.00 0.00 0.00 90 1013.1
20260502103504 11 142 4.8 14.5 0.00 0.00 0.00 90 1013.2
20260502102504 11 141 6.4 14.5 0.00 0.00 0.00 90 1013.2
20260502102005 11 138 4.8 14.5 0.00 0.00 0.00 90 1013.4
20260502101006 11 149 4.8 11.3 0.00 0.00 0.00 91 1013.4
20260502100504 11 146 3.2 11.3 0.00 0.00 0.00 90 1013.5
20260502091505 11 149 4.8 11.3 0.00 0.00 0.00 91 1013.8
20260502091005 11 146 4.8 12.9 0.00 0.00 0.00 91 1013.7
20260502090505 11 143 4.8 12.9 0.00 0.00 0.00 91 1013.8
20260502071504 10 143 4.8 12.9 0.00 0.00 0.00 90 1013.7
20260502071005 10 148 3.2 12.9 0.00 0.00 0.00 90 1013.8
20260502070505 10 148 3.2 9.7 0.00 0.00 0.00 90 1013.8
20260502070006 10 134 3.2 9.7 0.00 0.00 0.00 91 1013.7
20260502065504 10 122 4.8 12.9 0.00 0.00 0.00 91 1013.6
20260502065005 10 130 4.8 12.9 0.00 0.00 0.00 90 1013.7
20260502064505 10 131 3.2 11.3 0.00 0.00 0.00 91 1013.6
20260502064005 10 123 3.2 9.7 0.00 0.00 0.00 90 1013.5
20260502063505 10 126 3.2 12.9 0.00 0.00 0.00 90 1013.6
20260502063006 10 127 3.2 12.9 0.00 0.00 0.00 90 1013.7
20260502062504 10 124 3.2 12.9 0.00 0.00 0.00 89 1013.5
20260502062005 10 141 3.2 9.7 0.00 0.00 0.00 89 1013.7
20260502061505 10 166 3.2 9.7 0.00 0.00 0.00 89 1013.7
20260502060505 10 168 3.2 8.0 0.00 0.00 0.00 90 1013.7
20260502060005 10 149 3.2 9.7 0.00 0.00 0.00 90 1013.8
20260502055504 10 137 3.2 9.7 0.00 0.00 0.00 90 1013.9
20260502054504 10 128 3.2 12.9 0.00 0.00 0.00 90 1013.8
20260502054005 10 144 1.6 8.0 0.00 0.00 0.00 90 1013.9
20260502053504 10 148 1.6 6.4 0.00 0.00 0.00 90 1013.8
20260502053005 10 142 1.6 8.0 0.00 0.00 0.00 91 1013.8
20260502052504 10 133 1.6 8.0 0.00 0.00 0.00 91 1014.0
20260502052007 10 134 1.6 8.0 0.00 0.00 0.00 91 1013.9
20260502051504 10 133 3.2 8.0 0.00 0.00 0.00 91 1013.9
20260502051005 10 130 3.2 11.3 0.00 0.00 0.00 90 1014.0
20260502050504 10 128 3.2 11.3 0.00 0.00 0.00 90 1013.9
20260502050005 10 126 3.2 11.3 0.00 0.00 0.00 90 1014.0
20260502045504 10 128 3.2 11.3 0.00 0.00 0.00 91 1014.1
20260502045005 10 129 3.2 11.3 0.00 0.00 0.00 91 1014.2
20260502044505 10 129 4.8 11.3 0.00 0.00 0.00 90 1014.1
20260502044005 10 125 3.2 11.3 0.00 0.00 0.00 90 1014.1
20260502043504 10 128 3.2 9.7 0.00 0.00 0.00 90 1014.1
20260502042504 10 129 3.2 8.0 0.00 0.00 0.00 90 1014.1
20260502042006 10 132 3.2 11.3 0.00 0.00 0.00 90 1014.3
20260502041505 10 137 3.2 11.3 0.00 0.00 0.00 90 1014.3
20260502041005 10 134 4.8 11.3 0.00 0.00 0.00 90 1014.2
20260502040505 10 133 4.8 11.3 0.00 0.00 0.00 90 1014.4
20260502040006 10 133 3.2 11.3 0.00 0.00 0.00 90 1014.5
20260502035006 10 131 3.2 11.3 0.00 0.00 0.00 90 1014.5
20260502034504 10 128 3.2 11.3 0.00 0.00 0.00 90 1014.5
20260502034005 10 142 3.2 8.0 0.00 0.00 0.00 90 1014.6
20260502033504 10 154 1.6 8.0 0.00 0.00 0.00 90 1014.6
20260502033006 10 154 1.6 8.0 0.00 0.00 0.00 90 1014.8
20260502032504 10 147 1.6 8.0 0.00 0.00 0.00 90 1014.7
20260502032004 10 136 1.6 8.0 0.00 0.00 0.00 90 1014.8
20260502031504 10 133 1.6 8.0 0.00 0.00 0.00 89 1014.7
20260502031005 10 134 1.6 6.4 0.00 0.00 0.00 89 1014.9
20260502030504 10 136 1.6 11.3 0.00 0.00 0.00 89 1014.9
20260502030007 10 140 1.6 11.3 0.00 0.00 0.00 89 1014.9
20260502025504 10 132 1.6 4.8 0.00 0.00 0.00 88 1014.8
20260502024504 10 142 1.6 9.7 0.00 0.00 0.00 88 1015.0
20260502024005 10 152 3.2 9.7 0.00 0.00 0.00 88 1015.0
20260502023005 10 136 3.2 9.7 0.00 0.00 0.00 88 1015.0
20260502022505 10 135 3.2 9.7 0.00 0.00 0.00 88 1014.9